LVMGN SAAR-SABE

Flight info

Callsign LVMGN
Flight time 0h 46m
Altitude 23000
Route VASAL1C VASAL W20 MULTA W24 SNT SNT9R
Aircraft SF50/L-SDGRWY/L

Departure

Time 2026-04-30 12:09
Airport Rosario Islas Malvinas International Airport (SAAR)

Arrival

Time 2026-04-30 12:55
Airport Aeroparque Jorge Newbery (SABE)
Time Latitude Longitude Altitude Speed Heading
2026-04-30 11:57 -32.91629 -60.78109 87 ft 0 kts 110°
2026-04-30 12:02 -32.91629 -60.78106 87 ft 0 kts 76°
2026-04-30 12:03 -32.91626 -60.78105 87 ft 0 kts 340°
2026-04-30 12:03 -32.91620 -60.78131 87 ft 3 kts 284°
2026-04-30 12:03 -32.91611 -60.78168 87 ft 5 kts 289°
2026-04-30 12:04 -32.91616 -60.78215 87 ft 7 kts 210°
2026-04-30 12:04 -32.91671 -60.78244 87 ft 9 kts 204°
2026-04-30 12:04 -32.91730 -60.78286 87 ft 9 kts 231°
2026-04-30 12:04 -32.91754 -60.78359 87 ft 9 kts 253°
2026-04-30 12:05 -32.91772 -60.78437 87 ft 9 kts 255°
2026-04-30 12:05 -32.91788 -60.78514 87 ft 9 kts 256°
2026-04-30 12:05 -32.91804 -60.78591 87 ft 9 kts 256°
2026-04-30 12:05 -32.91790 -60.78662 87 ft 9 kts 309°
2026-04-30 12:06 -32.91741 -60.78702 87 ft 8 kts 344°
2026-04-30 12:06 -32.91686 -60.78720 87 ft 7 kts 340°
2026-04-30 12:06 -32.91639 -60.78746 87 ft 7 kts 338°
2026-04-30 12:06 -32.91597 -60.78749 87 ft 4 kts 11°
2026-04-30 12:07 -32.91583 -60.78746 87 ft 0 kts 11°
2026-04-30 12:08 -32.91386 -60.78702 87 ft 68 kts
2026-04-30 12:08 -32.90720 -60.78553 253 ft 112 kts 11°
2026-04-30 12:09 -32.89892 -60.78381 580 ft 129 kts
2026-04-30 12:09 -32.88975 -60.78213 861 ft 143 kts
2026-04-30 12:09 -32.87933 -60.78044 922 ft 166 kts
2026-04-30 12:09 -32.86709 -60.77781 714 ft 204 kts 18°
2026-04-30 12:10 -32.85329 -60.77090 787 ft 228 kts 38°
2026-04-30 12:10 -32.84496 -60.75467 958 ft 240 kts 78°
2026-04-30 12:10 -32.84710 -60.73540 1275 ft 239 kts 116°
2026-04-30 12:10 -32.85719 -60.71984 1555 ft 237 kts 131°
2026-04-30 12:11 -32.86826 -60.70549 1828 ft 236 kts 132°
2026-04-30 12:11 -32.87935 -60.69121 2101 ft 235 kts 132°
2026-04-30 12:11 -32.89043 -60.67695 2376 ft 235 kts 132°
2026-04-30 12:11 -32.90149 -60.66268 2651 ft 234 kts 132°
2026-04-30 12:12 -32.91257 -60.64844 2925 ft 237 kts 135°
2026-04-30 12:12 -32.92646 -60.63780 3195 ft 241 kts 155°
2026-04-30 12:12 -32.94231 -60.63084 3473 ft 243 kts 161°
2026-04-30 12:12 -32.95841 -60.62474 3749 ft 245 kts 162°
2026-04-30 12:13 -32.97465 -60.61865 4025 ft 246 kts 162°
2026-04-30 12:13 -32.99077 -60.61259 4298 ft 247 kts 162°
2026-04-30 12:13 -33.00715 -60.60643 4575 ft 247 kts 162°
2026-04-30 12:13 -33.02352 -60.60027 4851 ft 247 kts 162°
2026-04-30 12:14 -33.03999 -60.59406 5128 ft 247 kts 162°
2026-04-30 12:14 -33.05640 -60.58788 5405 ft 247 kts 162°
2026-04-30 12:14 -33.07258 -60.58179 5677 ft 247 kts 162°
2026-04-30 12:14 -33.08904 -60.57558 5955 ft 247 kts 162°
2026-04-30 12:15 -33.10523 -60.56948 6228 ft 246 kts 162°
2026-04-30 12:15 -33.12154 -60.56333 6502 ft 246 kts 162°
2026-04-30 12:15 -33.13794 -60.55714 6779 ft 245 kts 162°
2026-04-30 12:15 -33.15402 -60.55107 7050 ft 245 kts 162°
2026-04-30 12:16 -33.17028 -60.54493 7325 ft 244 kts 162°
2026-04-30 12:16 -33.18648 -60.53881 7600 ft 252 kts 162°
2026-04-30 12:16 -33.20375 -60.53228 7886 ft 265 kts 162°
2026-04-30 12:16 -33.22143 -60.52559 8259 ft 271 kts 162°
2026-04-30 12:17 -33.25761 -60.51190 9121 ft 275 kts 162°
2026-04-30 12:17 -33.27572 -60.50505 9531 ft 277 kts 162°
2026-04-30 12:17 -33.29401 -60.49812 9933 ft 279 kts 162°
2026-04-30 12:18 -33.31251 -60.49110 10319 ft 280 kts 162°
2026-04-30 12:18 -33.33116 -60.48391 10686 ft 282 kts 159°
2026-04-30 12:18 -33.34870 -60.47331 11043 ft 284 kts 151°
2026-04-30 12:18 -33.36573 -60.46178 11392 ft 285 kts 150°
2026-04-30 12:19 -33.38287 -60.44995 11725 ft 286 kts 149°
2026-04-30 12:19 -33.40018 -60.43793 12045 ft 288 kts 149°
2026-04-30 12:19 -33.41739 -60.42595 12341 ft 290 kts 149°
2026-04-30 12:19 -33.43478 -60.41383 12628 ft 292 kts 149°
2026-04-30 12:20 -33.45244 -60.40152 12908 ft 294 kts 149°
2026-04-30 12:20 -33.47014 -60.38916 13185 ft 295 kts 149°
2026-04-30 12:20 -33.48790 -60.37676 13460 ft 296 kts 149°
2026-04-30 12:20 -33.50548 -60.36447 13732 ft 298 kts 149°
2026-04-30 12:21 -33.52343 -60.35193 14009 ft 298 kts 149°
2026-04-30 12:21 -33.54142 -60.33935 14285 ft 299 kts 149°
2026-04-30 12:21 -33.55940 -60.32677 14559 ft 300 kts 149°
2026-04-30 12:21 -33.57721 -60.31430 14831 ft 300 kts 149°
2026-04-30 12:22 -33.59516 -60.30174 15104 ft 301 kts 149°
2026-04-30 12:22 -33.61338 -60.28897 15382 ft 301 kts 149°
2026-04-30 12:22 -33.63133 -60.27639 15654 ft 302 kts 149°
2026-04-30 12:22 -33.64939 -60.26372 15929 ft 302 kts 149°
2026-04-30 12:23 -33.66763 -60.25092 16206 ft 302 kts 149°
2026-04-30 12:23 -33.68552 -60.23836 16477 ft 302 kts 149°
2026-04-30 12:23 -33.70371 -60.22559 16753 ft 303 kts 149°
2026-04-30 12:23 -33.72175 -60.21291 17027 ft 303 kts 149°
2026-04-30 12:24 -33.74001 -60.20007 17304 ft 303 kts 149°
2026-04-30 12:24 -33.75805 -60.18739 17578 ft 303 kts 149°
2026-04-30 12:24 -33.77639 -60.17448 17856 ft 304 kts 149°
2026-04-30 12:24 -33.79455 -60.16169 18131 ft 304 kts 149°
2026-04-30 12:25 -33.81262 -60.14896 18406 ft 304 kts 149°
2026-04-30 12:25 -33.83081 -60.13585 18675 ft 304 kts 143°
2026-04-30 12:25 -33.84516 -60.11766 18958 ft 302 kts 126°
2026-04-30 12:25 -33.85759 -60.09734 19236 ft 302 kts 123°
2026-04-30 12:26 -33.86945 -60.07675 19512 ft 302 kts 122°
2026-04-30 12:26 -33.88128 -60.05581 19790 ft 302 kts 122°
2026-04-30 12:26 -33.89304 -60.03487 20068 ft 302 kts 122°
2026-04-30 12:26 -33.90464 -60.01413 20344 ft 302 kts 122°
2026-04-30 12:27 -33.91646 -59.99299 20625 ft 302 kts 122°
2026-04-30 12:27 -33.92803 -59.97226 20900 ft 302 kts 122°
2026-04-30 12:27 -33.93974 -59.95128 21179 ft 302 kts 122°
2026-04-30 12:27 -33.95149 -59.93021 21460 ft 302 kts 122°
2026-04-30 12:28 -33.96312 -59.90935 21738 ft 302 kts 122°
2026-04-30 12:28 -33.97487 -59.88825 22019 ft 302 kts 122°
2026-04-30 12:28 -33.98656 -59.86726 22299 ft 302 kts 122°
2026-04-30 12:28 -33.99812 -59.84647 22577 ft 302 kts 122°
2026-04-30 12:29 -34.00988 -59.82532 22860 ft 302 kts 122°
2026-04-30 12:29 -34.02157 -59.80430 23032 ft 307 kts 122°
2026-04-30 12:29 -34.03365 -59.78252 23051 ft 316 kts 122°
2026-04-30 12:29 -34.04592 -59.76041 23054 ft 324 kts 122°
2026-04-30 12:30 -34.05855 -59.73766 23054 ft 331 kts 122°
2026-04-30 12:30 -34.07137 -59.71452 23054 ft 336 kts 122°
2026-04-30 12:30 -34.08445 -59.69092 23054 ft 340 kts 122°
2026-04-30 12:30 -34.09761 -59.66716 23054 ft 344 kts 122°
2026-04-30 12:31 -34.11087 -59.64319 23048 ft 347 kts 122°
2026-04-30 12:31 -34.12437 -59.61878 23047 ft 349 kts 122°
2026-04-30 12:31 -34.13775 -59.59455 23047 ft 350 kts 122°
2026-04-30 12:31 -34.15122 -59.57017 23047 ft 351 kts 122°
2026-04-30 12:32 -34.16488 -59.54541 23047 ft 352 kts 122°
2026-04-30 12:32 -34.17847 -59.52076 23047 ft 353 kts 122°
2026-04-30 12:32 -34.19205 -59.49612 23047 ft 354 kts 122°
2026-04-30 12:32 -34.20561 -59.47150 23048 ft 354 kts 122°
2026-04-30 12:33 -34.21909 -59.44694 23048 ft 355 kts 122°
2026-04-30 12:33 -34.23241 -59.42196 23048 ft 353 kts 121°
2026-04-30 12:33 -34.24568 -59.39685 22657 ft 352 kts 121°
2026-04-30 12:33 -34.25865 -59.37226 22034 ft 347 kts 121°
2026-04-30 12:34 -34.27149 -59.34788 21409 ft 342 kts 120°
2026-04-30 12:34 -34.28413 -59.32388 20778 ft 337 kts 120°
2026-04-30 12:34 -34.29640 -59.30056 20174 ft 332 kts 120°
2026-04-30 12:34 -34.30863 -59.27730 19594 ft 326 kts 120°
2026-04-30 12:35 -34.32072 -59.25428 19013 ft 321 kts 120°
2026-04-30 12:35 -34.33261 -59.23164 18433 ft 317 kts 120°
2026-04-30 12:35 -34.34421 -59.20952 17860 ft 313 kts 120°
2026-04-30 12:35 -34.35585 -59.18733 17279 ft 309 kts 120°
2026-04-30 12:36 -34.36711 -59.16584 16711 ft 306 kts 120°
2026-04-30 12:36 -34.37845 -59.14420 16131 ft 302 kts 120°
2026-04-30 12:36 -34.38952 -59.12305 15558 ft 298 kts 120°
2026-04-30 12:36 -34.40054 -59.10198 14982 ft 295 kts 120°
2026-04-30 12:37 -34.41148 -59.08105 14403 ft 292 kts 121°
2026-04-30 12:37 -34.42218 -59.06059 13832 ft 289 kts 121°
2026-04-30 12:37 -34.43282 -59.04021 13258 ft 286 kts 121°
2026-04-30 12:37 -34.44335 -59.02002 12682 ft 283 kts 121°
2026-04-30 12:38 -34.45380 -58.99999 12104 ft 280 kts 121°
2026-04-30 12:38 -34.46408 -58.98031 11530 ft 277 kts 122°
2026-04-30 12:38 -34.47424 -58.96083 10958 ft 275 kts 122°
2026-04-30 12:38 -34.48431 -58.94150 10441 ft 271 kts 122°
2026-04-30 12:39 -34.49437 -58.92219 9936 ft 267 kts 122°
2026-04-30 12:39 -34.50420 -58.90329 9436 ft 265 kts 122°
2026-04-30 12:39 -34.51392 -58.88460 8937 ft 263 kts 122°
2026-04-30 12:39 -34.52355 -58.86607 8439 ft 261 kts 122°
2026-04-30 12:40 -34.53313 -58.84763 7966 ft 258 kts 122°
2026-04-30 12:40 -34.54252 -58.82955 7594 ft 253 kts 122°
2026-04-30 12:40 -34.55179 -58.81168 7218 ft 249 kts 122°
2026-04-30 12:40 -34.56074 -58.79396 6838 ft 246 kts 116°
2026-04-30 12:41 -34.56709 -58.77472 6465 ft 244 kts 109°
2026-04-30 12:41 -34.57246 -58.75557 6186 ft 238 kts 108°
2026-04-30 12:41 -34.57767 -58.73672 6004 ft 230 kts 108°
2026-04-30 12:41 -34.58263 -58.71881 5973 ft 218 kts 108°
2026-04-30 12:42 -34.58731 -58.70189 5971 ft 208 kts 108°
2026-04-30 12:42 -34.59188 -58.68536 5971 ft 201 kts 108°
2026-04-30 12:42 -34.59623 -58.66961 5972 ft 195 kts 108°
2026-04-30 12:42 -34.60049 -58.65420 5972 ft 190 kts 108°
2026-04-30 12:43 -34.60464 -58.63916 5972 ft 187 kts 108°
2026-04-30 12:43 -34.60871 -58.62438 5973 ft 184 kts 108°
2026-04-30 12:43 -34.61273 -58.60964 5973 ft 182 kts 108°
2026-04-30 12:43 -34.61659 -58.59522 5973 ft 180 kts 107°
2026-04-30 12:44 -34.62052 -58.58047 5831 ft 187 kts 107°
2026-04-30 12:44 -34.62458 -58.56523 5647 ft 194 kts 107°
2026-04-30 12:44 -34.62877 -58.54957 5499 ft 197 kts 107°
2026-04-30 12:44 -34.63299 -58.53372 5351 ft 199 kts 107°
2026-04-30 12:45 -34.63727 -58.51768 5203 ft 201 kts 107°
2026-04-30 12:45 -34.64159 -58.50147 5054 ft 202 kts 107°
2026-04-30 12:45 -34.64596 -58.48503 4903 ft 203 kts 107°
2026-04-30 12:45 -34.65031 -58.46869 4753 ft 204 kts 107°
2026-04-30 12:46 -34.65464 -58.45240 4604 ft 204 kts 107°
2026-04-30 12:46 -34.65897 -58.43611 4456 ft 204 kts 107°
2026-04-30 12:46 -34.66337 -58.41955 4305 ft 204 kts 107°
2026-04-30 12:46 -34.66774 -58.40309 4154 ft 204 kts 107°
2026-04-30 12:47 -34.67209 -58.38670 4005 ft 204 kts 107°
2026-04-30 12:47 -34.67637 -58.37053 3855 ft 201 kts 107°
2026-04-30 12:47 -34.68067 -58.35431 3703 ft 200 kts 107°
2026-04-30 12:47 -34.68485 -58.33851 3555 ft 198 kts 107°
2026-04-30 12:48 -34.68907 -58.32257 3404 ft 197 kts 107°
2026-04-30 12:48 -34.69329 -58.30661 3253 ft 195 kts 107°
2026-04-30 12:48 -34.69738 -58.29115 3104 ft 193 kts 107°
2026-04-30 12:48 -34.70145 -58.27574 2991 ft 189 kts 107°
2026-04-30 12:49 -34.70469 -58.26059 2972 ft 181 kts 89°
2026-04-30 12:49 -34.70016 -58.24692 2873 ft 178 kts 45°
2026-04-30 12:49 -34.68930 -58.24062 2734 ft 178 kts 11°
2026-04-30 12:49 -34.67684 -58.23894 2586 ft 180 kts
2026-04-30 12:50 -34.66456 -58.24090 2493 ft 178 kts 337°
2026-04-30 12:50 -34.65451 -58.24917 2480 ft 174 kts 317°
2026-04-30 12:50 -34.64670 -58.26004 2476 ft 167 kts 308°
2026-04-30 12:50 -34.64018 -58.27088 2408 ft 155 kts 306°
2026-04-30 12:51 -34.63407 -58.28157 2256 ft 152 kts 305°
2026-04-30 12:51 -34.62819 -58.29207 2106 ft 150 kts 305°
2026-04-30 12:51 -34.62232 -58.30259 1954 ft 149 kts 305°
2026-04-30 12:51 -34.61654 -58.31295 1805 ft 148 kts 305°
2026-04-30 12:52 -34.61079 -58.32327 1670 ft 145 kts 305°
2026-04-30 12:52 -34.60548 -58.33281 1553 ft 130 kts 305°
2026-04-30 12:52 -34.60051 -58.34171 1397 ft 124 kts 305°
2026-04-30 12:52 -34.59578 -58.35021 1245 ft 121 kts 305°
2026-04-30 12:53 -34.59116 -58.35851 1095 ft 118 kts 305°
2026-04-30 12:53 -34.58671 -58.36668 1005 ft 102 kts 303°
2026-04-30 12:53 -34.58305 -58.37311 814 ft 89 kts 307°
2026-04-30 12:53 -34.57940 -58.37920 612 ft 85 kts 306°
2026-04-30 12:54 -34.57615 -58.38514 462 ft 84 kts 304°
2026-04-30 12:54 -34.57303 -58.39105 353 ft 84 kts 304°
2026-04-30 12:54 -34.56988 -58.39690 296 ft 80 kts 307°
2026-04-30 12:54 -34.56652 -58.40190 300 ft 70 kts 313°
2026-04-30 12:55 -34.56253 -58.40684 358 ft 72 kts 327°
2026-04-30 12:55 -34.55845 -58.40550 660 ft 75 kts 67°
2026-04-30 12:55 -34.55845 -58.39997 706 ft 106 kts 112°
2026-04-30 12:55 -34.56048 -58.39519 10 ft 10 kts 129°
2026-04-30 12:56 -34.56049 -58.39495 10 ft 6 kts 343°
2026-04-30 12:56 -32.91629 -60.78109 87 ft 0 kts 110°